Tracking 20945 objects as of 8-Jul-2020
HD Live streaming from Space Station
objects crossing your sky now

METEOR 1-13

Track METEOR 1-13 now!
10-day predictions
METEOR 1-13 is classified as:


NORAD ID: 6256
Int'l Code: 1972-085A
Perigee: 850.8 km
Apogee: 889.6 km
Inclination: 81.3 °
Period: 102.2 minutes
Semi major axis: 7241 km
RCS: 4.603 m2 (large)
Launch date: October 26, 1972
Source: Commonwealth of Independent States (former USSR) (CIS)
Launch site: PLESETSK MISSILE AND SPACE COMPLEX (PKMTR)
aabbcc
Your satellite tracking list
Your tracking list is empty




NASA's NSSDC Master Catalog

Two Line Element Set (TLE):
1  6256U 72085A   20189.90999716  .00000109  00000-0  55693-4 0  9993
2  6256  81.2733  95.5663 0026838 192.3544 167.6972 14.08924241449868
Source of the keplerian elements: AFSPC